Dati Storici

Data ora Umidita' aria (%) Temperatura aria (°C) Rad globale (W/m²) Gonioanemometro (°) Tacoanemometro (m/s) Pioggia (mm)
18-06-2020 12:50 54.2 % 25.753 198.244 2.644 0 0
18-06-2020 12:40 54.2 % 25.153 195.571 3.492 0 0
18-06-2020 12:30 54.4 % 24.813 124.335 2.334 0 0
18-06-2020 12:20 56.6 % 25.31 157.577 1.938 0 0
18-06-2020 12:10 56.6 % 25.089 195.432 3.956 0 0
18-06-2020 12:00 57.6 % 24.88 200.115 1.514 0 0
18-06-2020 11:50 57.8 % 24.93 272.823 4.073 0 0
18-06-2020 11:40 58.9 % 24.635 281.715 2.04 0 0
18-06-2020 11:30 60.5 % 24.531 245.774 3.547 0 0
18-06-2020 11:20 60.1 % 24.376 303.408 2.304 0 0
18-06-2020 11:10 59.8 % 24.168 264.105 1.124 0 0
18-06-2020 11:00 60.7 % 24.029 189.206 2.706 0 0
18-06-2020 10:50 60.7 % 23.845 160.135 3.665 0 0
18-06-2020 10:40 62.4 % 24.142 120.517 1.181 0 0
18-06-2020 10:30 62.5 % 23.519 46.333 2.245 0 0
18-06-2020 10:20 61.5 % 23.458 268.942 2.848 0 0
18-06-2020 10:10 63.2 % 23.509 213.266 0.956 0 0
18-06-2020 10:00 61.1 % 23.023 198.113 3.476 0 0
18-06-2020 09:50 62.8 % 23.393 167.395 2.171 0 0
18-06-2020 09:40 65.8 % 23.047 194.923 2.374 0 0

I dati sono presentati in modo automatico a scopo informativo. In seguito a verifica i dati possono subire modifiche o essere invalidati e non riportati negli archivi definitivi.